STARLINK-32842, 62822

Orbit data source: Space-Track

STARLINK-32842, 62822 is a payload satellite owned by SpaceX/Seattle (US) in LEO that was launched on Fri, 24 Jan 2025 UTC via an FALCON 9 launch vehicle from the Air Force Western Test Range (AFWTR). Payload-class satellites include a variety of spacecraft equipped with specific instruments for various scientific and technological missions. These include communications satellites like Starlink; space stations such as the ISS; scientific satellites like the Hubble; Earth observation satellites from companies like Planet Labs, Umbra, and HawkEye 360; GPS; miniature CubeSats for education and research; and military/defense satellites.

Loading next visibility...
Identifier
62822, 2025-018S
Orbit
LEO
Country
Flag of USUS
Related business
Manufacturer
SpaceX/Seattle
Mission
Operational Commercial Communications
Bus & Motor
STARLINK V2M, Unknown motor
Mass
730 kg wet, ~700 kg dry
Launch date (UTC)
2025-01-24 (9 months ago)
Launch vehicle
FALCON 9
Launch site
Air Force Western Test Range (AFWTR)
Object type
Payload
Rocket body
Debris
Shape & HBR
Box + 2 Pan, 17.7 m
Radar Cross Section
33.884 m², Large (>1 m²)

Expand to show TLE details & history
Last TLE update: 1 day ago

TLE from 1 day ago
0 STARLINK-32842
1 62822U 25018S   25306.35555753  .00022707  00000-0  77620-3 0  9993
2 62822  53.1577 181.0040 0000328 121.2511 238.8522 15.30209185 43685
Epoch: 2025-11-02T08:32Z
TLE epoch observation values (Epoch: 2025-11-02T08:32:00.170Z)
Latitude
-0.00002°
Longitude
11.13081°
Altitude
476.203 km
Speed
7.629 km/s
True Right ascension
12h 04m 00s
True Declination
0° 00' 00"
Sunlit
Object was in daylight at epoch
Visualization orbit readout
Latitude
Unknown
Longitude
Unknown
Altitude
Unknown
Speed
Unknown
Apparent Right ascension
Unknown
Apparent Declination
Unknown
Sunlit
N/A
Visualization observer readout
Local Sidereal Time
07:35:49
Azimuth
Unknown
Elevation
Unknown
Doppler factor
Unknown
Orbital elements
Apogee altitude
475.669 km
Perigee altitude
475.22 km
Semi-major axis
6,853.581 km
Eccentricity
0.00003
Inclination
53.1577°
RAAN
181.004°
Arg. of periapsis
121.2511°
True anomaly
238.84898°
Mean anomaly
238.8522°
Eccentric anomaly
238.85059°
Mean motion
3.82531 °/min
Orbital period
94.11 mins
BSTAR
0.0007762
Loading maneuver chart data...
Computing Atmospheric mass density...
Loading historical data...
Loading historical data...
Loading historical data...
Loading historical data...
Loading historical data...
Loading historical data...
Loading historical data...

Documentation

Showing up to 5 results
|